Location: Chèvreville
(49.1099°N, 2.8495°E)
Time: 00:37:37
(UTC+00:00)

CZ-4 R/B - Pass Details

Date: 28 January 2023
Orbit: 525 x 587 km, 97.7° (Epoch: 21 March)

Event Time Altitude Azimuth Distance (km) Brightness Sun altitude
Rises 18:13:18 0° 146° (SE) 2,813 4.7 -15.5°
Reaches altitude 10° 18:15:32 10° 139° (SE) 1,913 3.8 -15.8°
Maximum altitude 18:19:26 41° 70° (ENE) 856 1.8 -16.5°
Drops below altitude 10° 18:23:20 10° 360° (N) 1,906 4.0 -17.1°
Sets 18:25:34 0° 353° (N) 2,800 4.9 -17.5°
